Location: Newark
(49.2191°N, 12.6671°E)
Time: 03:19:01
(UTC+00:00)

Transit 4A - Pass Details

Date: 02 February 2020
Orbit: 872 x 973 km, 66.8° (Epoch: 16 February)

Event Time Altitude Azimuth Distance (km) Brightness Sun altitude
Rises 10:58:44 0° 324° (NW) 3,476 10.4 23.7°
Reaches altitude 10° 11:01:28 10° 334° (NNW) 2,532 9.7 23.7°
Maximum altitude 11:06:46 35° 39° (NE) 1,393 8.7 23.8°
Drops below altitude 10° 11:12:04 10° 104° (ESE) 2,534 10.5 23.8°
Sets 11:14:47 0° 114° (ESE) 3,480 11.2 23.9°
